Weather History for CYZT - July, 2013

Change the Weather History Date:

Sunday, July 28, 2013

  Actual Average Record
Temperature  
Mean Temperature 58 °F -  
Max Temperature 64 °F 64 °F 73 °F (2004)
Min Temperature 53 °F 50 °F 44 °F (2008)
Degree Days  
Heating Degree Days 6    
Growing Degree Days 8 (Base 50)    
Moisture  
Dew Point 54 °F    
Average Humidity 82    
Maximum Humidity 94    
Minimum Humidity 68    
Precipitation  
Precipitation 0.00 in 0.08 in - ()
Sea Level Pressure  
Sea Level Pressure 30.06 in    
Wind  
Wind Speed 7 mph ()    
Max Wind Speed 10 mph    
Max Gust Speed 20 mph    
Visibility 14.4 miles    
Events Fog    
Averages and records for this station are not official NWS values.
T = Trace of Precipitation, MM = Missing Value Source: Averaged Metar Reports

Daily Weather History Graph

Daily Weather History Graph

Search for Another Location

Airport or City:

Trip Planner

Search our weather history database for the weather conditions in past years. The results will help you decide how hot, cold, wet, or windy it might be!

Date:

Astronomy

Jul. 28, 2013 Rise Set
Actual Time 5:51 AM PDT 9:19 PM PDT
Civil Twilight 5:10 AM PDT 9:59 PM PDT
Nautical Twilight 4:16 AM PDT 10:53 PM PDT
Astronomical Twilight 3:00 AM PDT 12:08 AM PDT
Moon 11:51 PM PDT (7/28) 1:31 PM PDT (7/28)
Length of Visible Light 16h 49m
Length of Day
15h 28m
Waning Gibbous, 60% of the Moon is Illuminated
Jul 28
Waning Gibbous
Jul 29
Last Quarter
Aug 6
New
Aug 14
First Quarter
Aug 20
Full

Hourly Weather History & Observations

Time (PDT) Temp. Dew Point Humidity Pressure Visibility Wind Dir Wind Speed Gust Speed Precip Events Conditions
12:00 AM 59.0 °F 53.6 °F 82% 30.13 in 15.0 mi West 8.1 mph - N/A   Overcast
1:00 AM 59.0 °F 51.8 °F 77% 30.12 in 15.0 mi West 8.1 mph - N/A   Overcast
2:00 AM 59.0 °F 53.6 °F 82% 30.10 in 15.0 mi NW 8.1 mph - N/A   Overcast
3:00 AM 59.0 °F 53.6 °F 82% 30.09 in 15.0 mi WNW 10.4 mph 19.6 mph N/A   Overcast
4:00 AM 59.0 °F 53.6 °F 82% 30.08 in 15.0 mi WNW 8.1 mph - N/A   Overcast
5:00 AM 59 °F 53 °F 74% 30.07 in 15 mi WNW 6.9 mph - -   Overcast
5:00 AM 59.0 °F 53.6 °F 82% 30.06 in 15.0 mi West 6.9 mph - N/A   Overcast
6:00 AM 59.0 °F 53.6 °F 82% 30.06 in 15.0 mi NW 4.6 mph - N/A   Overcast
7:00 AM 59.0 °F 53.6 °F 82% 30.06 in 15.0 mi NNW 3.5 mph - N/A   Overcast
8:00 AM 57.2 °F 53.6 °F 88% 30.06 in 12.0 mi North 4.6 mph - N/A   Overcast
9:00 AM 57.2 °F 53.6 °F 88% 30.06 in 8.0 mi North 9.2 mph - N/A   Overcast
9:33 AM 57.2 °F 53.6 °F 88% 30.07 in 6.0 mi North 8.1 mph - N/A Fog Overcast
10:00 AM 57.2 °F 53.6 °F 88% 30.07 in 4.0 mi North 8.1 mph - N/A Fog Overcast
11:00 AM 57 °F 54 °F 84% 30.07 in 3 mi NNE 6.9 mph - - Fog Light Fog
11:00 AM 57.2 °F 53.6 °F 88% 30.07 in 3.0 mi NNE 8.1 mph - N/A Fog Overcast
12:00 PM 59.0 °F 53.6 °F 82% 30.07 in 8.0 mi NNE 5.8 mph - N/A Fog Mostly Cloudy
12:13 PM 59.0 °F 55.4 °F 88% 30.07 in 8.0 mi NE 8.1 mph - N/A Fog Scattered Clouds
1:00 PM 60.8 °F 55.4 °F 82% 30.06 in 20.0 mi North 10.4 mph - N/A   Scattered Clouds
2:00 PM 64.4 °F 55.4 °F 73% 30.06 in 20.0 mi North 10.4 mph - N/A   Scattered Clouds
3:00 PM 64.4 °F 55.4 °F 73% 30.05 in 20.0 mi North 8.1 mph - N/A   Scattered Clouds
4:00 PM 62.6 °F 55.4 °F 77% 30.04 in 20.0 mi North 8.1 mph - N/A   Partly Cloudy
5:00 PM 62 °F 54 °F 68% 30.04 in 19 mi NNW 9.2 mph - -   Scattered Clouds
5:00 PM 62.6 °F 53.6 °F 72% 30.04 in 20.0 mi NNW 10.4 mph - N/A   Partly Cloudy
6:00 PM 62.6 °F 53.6 °F 72% 30.02 in 20.0 mi NNW 10.4 mph - N/A   Partly Cloudy
7:00 PM 60.8 °F 53.6 °F 77% 30.02 in 20.0 mi North 9.2 mph - N/A   Partly Cloudy
8:00 PM 59.0 °F 53.6 °F 82% 30.02 in 20.0 mi NW 8.1 mph - N/A   Partly Cloudy
9:00 PM 59.0 °F 53.6 °F 82% 30.01 in 20.0 mi NNW 3.5 mph - N/A   Partly Cloudy
10:00 PM 53.6 °F 51.8 °F 94% 30.02 in 15.0 mi South 5.8 mph - N/A   Partly Cloudy
11:00 PM 53 °F 52 °F 94% 30.03 in 15 mi SSE 2.3 mph - -   Scattered Clouds
11:00 PM 53.6 °F 51.8 °F 94% 30.03 in 15.0 mi ESE 2.3 mph - N/A   Partly Cloudy